map of EOH home
EOH - Airport
Location
City:  Medellín, Antioquia, Colombia
Name:Enrique Olaya Herrera Airport
ICAO:SKMD
IATA:EOH

Details
Type:Airport (Aerodrome, Airfield)
Latitude:6°13'12"N (6.219958)
Longitude:75°35'26"W (-75.590518)
Datum:WGS 1984
Elevation:4940 ft (1506 m)
Variation:6.56°W (WMM2015 magnetic declination)
-0.14° annual change
Runways:1
Longest:8234 × 148 ft (2510 × 45 m), paved

Time
Time Zone:UTC-5
Local Time:

Weather
METAR:SKMD 251900Z VRB02KT 9999 VCSH SCT035TCU SCT080 25/12 A3011 RMK TCU VCSH SE/SW

Related Locations
Nearby:
Farthest:TKG: 12350 mi / 19876 km
Bandar Lampung [Branti (Radin Inten Li)], LA, ID

Find:

   beyond  
but within

Other Information
Maps:
NOTAMs:
Links:
Sources:

  
flag of Colombia
flag of Antioquia
flag of Medellín
  

Sectional Chart

Flight Planning
at skyvector.com

Satellite Image

Google Maps Satellite view

 

Copyright © 2004-2018 Karl L. Swartz. All rights reserved.
The Great Circle Mapper name and logo are trademarks of the Great Circle Mapper.
All other trademarks mentioned herein belong to their respective owners.
Please see credits for attibutions and further copyright information.

  Follow gcmap on Facebook Follow gcmap on Twitter Follow gcmap on Google+ GCmap on LinkedIn

hCard Microformat

Geo Microformat